owner,sensor,date,latitude,longitude,vertical_datum,wind_speed,wind_to_direction,wind_speed_of_gust,qcFlag 
TCOON,ioos:station:TCOON:009:1,2009-02-01T00:00:00Z,27.8398,-97.0727,0.0,1.5,94.0,1.8,'11111222,11111222,11111222' 
TCOON,ioos:station:TCOON:009:1,2009-02-01T01:00:00Z,27.8398,-97.0727,0.0,1.8,156.0,2.5,'11111222,11111222,11111222' 
TCOON,ioos:station:TCOON:009:1,2009-02-01T03:00:00Z,27.8398,-97.0727,0.0,1.3,155.0,2.4,'11111222,11111222,11111222' 
TCOON,ioos:station:TCOON:009:1,2009-02-01T04:00:00Z,27.8398,-97.0727,0.0,2.7,170.0,4.3,'11111222,11111222,11111222' 
TCOON,ioos:station:TCOON:009:1,2009-02-01T05:00:00Z,27.8398,-97.0727,0.0,2.5,171.0,4.2,'11111222,11111222,11111222' 
TCOON,ioos:station:TCOON:009:1,2009-02-01T06:00:00Z,27.8398,-97.0727,0.0,2.7,180.0,3.8,'11111222,11111222,11111222' 
TCOON,ioos:station:TCOON:009:1,2009-02-01T07:00:00Z,27.8398,-97.0727,0.0,2.7,191.0,4.1,'11111222,11111222,11111222' 
TCOON,ioos:station:TCOON:009:1,2009-02-01T08:00:00Z,27.8398,-97.0727,0.0,2.5,191.0,3.8,'11111222,11111222,11111222' 
TCOON,ioos:station:TCOON:009:1,2009-02-01T09:00:00Z,27.8398,-97.0727,0.0,3.2,186.0,4.4,'11111222,11111222,11111222' 
TCOON,ioos:station:TCOON:009:1,2009-02-01T10:00:00Z,27.8398,-97.0727,0.0,3.6,187.0,4.8,'11111222,11111222,11111222' 
TCOON,ioos:station:TCOON:009:1,2009-02-01T11:00:00Z,27.8398,-97.0727,0.0,4.0,193.0,6.7,'11111222,11111222,11111222' 
TCOON,ioos:station:TCOON:009:1,2009-02-01T12:00:00Z,27.8398,-97.0727,0.0,2.7,182.0,3.8,'11111222,11111222,11111222' 
TCOON,ioos:station:TCOON:009:1,2009-02-01T13:00:00Z,27.8398,-97.0727,0.0,2.1,183.0,2.6,'11111222,11111222,11111222' 
TCOON,ioos:station:TCOON:009:1,2009-02-01T14:00:00Z,27.8398,-97.0727,0.0,2.6,182.0,4.0,'11111222,11111222,11111222' 
TCOON,ioos:station:TCOON:009:1,2009-02-01T15:00:00Z,27.8398,-97.0727,0.0,3.9,177.0,6.3,'11111222,11111222,11111222' 
TCOON,ioos:station:TCOON:009:1,2009-02-01T16:00:00Z,27.8398,-97.0727,0.0,6.0,186.0,8.2,'11111222,11111222,11111222' 
TCOON,ioos:station:TCOON:009:1,2009-02-01T17:00:00Z,27.8398,-97.0727,0.0,4.8,193.0,8.0,'11111222,11111222,11111222' 
TCOON,ioos:station:TCOON:009:1,2009-02-01T18:00:00Z,27.8398,-97.0727,0.0,6.1,195.0,20.0,'11111222,11111222,11111222' 
TCOON,ioos:station:TCOON:009:1,2009-02-01T19:00:00Z,27.8398,-97.0727,0.0,5.2,180.0,7.8,'11111222,11111222,11111222' 
TCOON,ioos:station:TCOON:009:1,2009-02-01T20:00:00Z,27.8398,-97.0727,0.0,5.0,177.0,20.0,'11111222,11111222,11111222' 
TCOON,ioos:station:TCOON:009:1,2009-02-01T21:00:00Z,27.8398,-97.0727,0.0,5.8,166.0,8.4,'11111222,11111222,11111222' 
TCOON,ioos:station:TCOON:009:1,2009-02-01T22:00:00Z,27.8398,-97.0727,0.0,4.3,149.0,6.7,'11111222,11111222,11111222' 
TCOON,ioos:station:TCOON:009:1,2009-02-01T23:00:00Z,27.8398,-97.0727,0.0,4.0,152.0,7.2,'11111222,11111222,11111222' 
TCOON,ioos:station:TCOON:009:1,2009-02-02T00:00:00Z,27.8398,-97.0727,0.0,3.8,146.0,5.3,'11111222,11111222,11111222' 
TCOON,ioos:station:TCOON:009:1,2009-02-02T01:00:00Z,27.8398,-97.0727,0.0,3.5,153.0,5.5,'11111222,11111222,11111222' 
TCOON,ioos:station:TCOON:009:1,2009-02-02T02:00:00Z,27.8398,-97.0727,0.0,3.3,160.0,4.8,'11111222,11111222,11111222' 
TCOON,ioos:station:TCOON:009:1,2009-02-02T03:00:00Z,27.8398,-97.0727,0.0,5.2,176.0,99.0,'11111222,11111222,11144222' 
TCOON,ioos:station:TCOON:009:1,2009-02-02T04:00:00Z,27.8398,-97.0727,0.0,4.4,177.0,7.2,'11111222,11111222,11111222' 
TCOON,ioos:station:TCOON:009:1,2009-02-02T05:00:00Z,27.8398,-97.0727,0.0,4.8,179.0,6.3,'11111222,11111222,11111222' 
TCOON,ioos:station:TCOON:009:1,2009-02-02T06:00:00Z,27.8398,-97.0727,0.0,3.0,188.0,4.8,'11111222,11111222,11111222' 
TCOON,ioos:station:TCOON:009:1,2009-02-02T07:00:00Z,27.8398,-97.0727,0.0,2.6,200.0,3.6,'11111222,11111222,11111222' 
TCOON,ioos:station:TCOON:009:1,2009-02-02T08:00:00Z,27.8398,-97.0727,0.0,2.6,255.0,3.3,'11111222,11111222,11111222' 
TCOON,ioos:station:TCOON:009:1,2009-02-02T09:00:00Z,27.8398,-97.0727,0.0,6.8,318.0,8.3,'11111222,11111222,11111222' 
TCOON,ioos:station:TCOON:009:1,2009-02-02T10:00:00Z,27.8398,-97.0727,0.0,5.3,348.0,7.1,'11111222,11111222,11111222' 
TCOON,ioos:station:TCOON:009:1,2009-02-02T11:00:00Z,27.8398,-97.0727,0.0,7.4,355.0,9.4,'11111222,11111222,11111222' 
TCOON,ioos:station:TCOON:009:1,2009-02-02T12:00:00Z,27.8398,-97.0727,0.0,7.0,354.0,8.7,'11111222,11111222,11111222' 
TCOON,ioos:station:TCOON:009:1,2009-02-02T13:00:00Z,27.8398,-97.0727,0.0,9.4,360.0,12.2,'11111222,11144222,11111222' 
TCOON,ioos:station:TCOON:009:1,2009-02-02T14:00:00Z,27.8398,-97.0727,0.0,6.8,349.0,9.7,'11111222,11111222,11111222' 
TCOON,ioos:station:TCOON:009:1,2009-02-02T15:00:00Z,27.8398,-97.0727,0.0,9.7,357.0,12.1,'11111222,11111222,11111222' 
TCOON,ioos:station:TCOON:009:1,2009-02-02T16:00:00Z,27.8398,-97.0727,0.0,10.4,360.0,12.8,'11111222,11144222,11111222' 
TCOON,ioos:station:TCOON:009:1,2009-02-02T17:00:00Z,27.8398,-97.0727,0.0,9.0,1.0,12.2,'11111222,11111222,11111222' 
TCOON,ioos:station:TCOON:009:1,2009-02-02T18:00:00Z,27.8398,-97.0727,0.0,8.3,14.0,10.1,'11111222,11111222,11111222' 
TCOON,ioos:station:TCOON:009:1,2009-02-02T19:00:00Z,27.8398,-97.0727,0.0,8.3,17.0,10.0,'11111222,11111222,11111222' 
TCOON,ioos:station:TCOON:009:1,2009-02-02T20:00:00Z,27.8398,-97.0727,0.0,9.0,30.0,10.3,'11111222,11111222,11111222' 
TCOON,ioos:station:TCOON:009:1,2009-02-02T21:00:00Z,27.8398,-97.0727,0.0,7.8,17.0,9.1,'11111222,11111222,11111222' 
TCOON,ioos:station:TCOON:009:1,2009-02-02T22:00:00Z,27.8398,-97.0727,0.0,8.1,25.0,10.1,'11111222,11111222,11111222' 
TCOON,ioos:station:TCOON:009:1,2009-02-02T23:00:00Z,27.8398,-97.0727,0.0,6.1,33.0,7.4,'11111222,11111222,11111222' 
TCOON,ioos:station:TCOON:009:1,2009-02-03T00:00:00Z,27.8398,-97.0727,0.0,4.2,53.0,5.3,'11111222,11111222,11111222' 
TCOON,ioos:station:TCOON:009:1,2009-02-03T01:00:00Z,27.8398,-97.0727,0.0,2.4,44.0,2.9,'11111222,11111222,11111222' 
TCOON,ioos:station:TCOON:009:1,2009-02-03T02:00:00Z,27.8398,-97.0727,0.0,3.1,31.0,4.0,'11111222,11111222,11111222' 
TCOON,ioos:station:TCOON:009:1,2009-02-03T03:00:00Z,27.8398,-97.0727,0.0,2.3,49.0,2.8,'11111222,11111222,11111222' 
TCOON,ioos:station:TCOON:009:1,2009-02-03T04:00:00Z,27.8398,-97.0727,0.0,2.0,49.0,2.5,'11111222,11111222,11111222' 
TCOON,ioos:station:TCOON:009:1,2009-02-03T05:00:00Z,27.8398,-97.0727,0.0,2.4,42.0,2.8,'11111222,11111222,11111222' 
TCOON,ioos:station:TCOON:009:1,2009-02-03T06:00:00Z,27.8398,-97.0727,0.0,2.8,350.0,3.2,'11111222,11111222,11111222' 
TCOON,ioos:station:TCOON:009:1,2009-02-03T07:00:00Z,27.8398,-97.0727,0.0,2.2,3.0,2.7,'11111222,11111222,11111222' 
TCOON,ioos:station:TCOON:009:1,2009-02-03T08:00:00Z,27.8398,-97.0727,0.0,1.0,55.0,1.5,'11111222,11111222,11111222' 
TCOON,ioos:station:TCOON:009:1,2009-02-03T09:00:00Z,27.8398,-97.0727,0.0,1.7,47.0,1.9,'11111222,11111222,11111222' 
TCOON,ioos:station:TCOON:009:1,2009-02-03T10:00:00Z,27.8398,-97.0727,0.0,2.1,86.0,2.5,'11111222,11111222,11111222' 
TCOON,ioos:station:TCOON:009:1,2009-02-03T11:00:00Z,27.8398,-97.0727,0.0,1.6,87.0,1.7,'11111222,11111222,11111222' 
TCOON,ioos:station:TCOON:009:1,2009-02-03T12:00:00Z,27.8398,-97.0727,0.0,0.5,98.0,0.7,'11111222,11111222,11111222' 
TCOON,ioos:station:TCOON:009:1,2009-02-03T13:00:00Z,27.8398,-97.0727,0.0,0.0,303.0,99.0,'11111222,11111222,11144222' 
TCOON,ioos:station:TCOON:009:1,2009-02-03T14:00:00Z,27.8398,-97.0727,0.0,2.0,287.0,2.2,'11111222,11111222,11111222' 
TCOON,ioos:station:TCOON:009:1,2009-02-03T16:00:00Z,27.8398,-97.0727,0.0,2.1,278.0,2.8,'11111222,11111222,11111222' 
TCOON,ioos:station:TCOON:009:1,2009-02-03T17:00:00Z,27.8398,-97.0727,0.0,2.2,276.0,2.5,'11111222,11111222,11111222' 
TCOON,ioos:station:TCOON:009:1,2009-02-03T18:00:00Z,27.8398,-97.0727,0.0,2.6,238.0,4.9,'11111222,11111222,11111222' 
TCOON,ioos:station:TCOON:009:1,2009-02-03T19:00:00Z,27.8398,-97.0727,0.0,3.5,219.0,5.6,'11111222,11111222,11111222' 
TCOON,ioos:station:TCOON:009:1,2009-02-03T20:00:00Z,27.8398,-97.0727,0.0,3.4,165.0,5.3,'11111222,11111222,11111222' 
TCOON,ioos:station:TCOON:009:1,2009-02-03T21:00:00Z,27.8398,-97.0727,0.0,4.1,172.0,5.4,'11111222,11111222,11111222' 
TCOON,ioos:station:TCOON:009:1,2009-02-03T22:00:00Z,27.8398,-97.0727,0.0,4.7,149.0,5.7,'11111222,11111222,11111222' 
TCOON,ioos:station:TCOON:009:1,2009-02-03T23:00:00Z,27.8398,-97.0727,0.0,3.8,140.0,5.4,'11111222,11111222,11111222' 
TCOON,ioos:station:TCOON:009:1,2009-02-04T00:00:00Z,27.8398,-97.0727,0.0,3.0,139.0,4.2,'11111222,11111222,11111222' 
TCOON,ioos:station:TCOON:009:1,2009-02-04T01:00:00Z,27.8398,-97.0727,0.0,2.8,150.0,4.0,'11111222,11111222,11111222' 
TCOON,ioos:station:TCOON:009:1,2009-02-04T02:00:00Z,27.8398,-97.0727,0.0,2.6,154.0,3.8,'11111222,11111222,11111222' 
TCOON,ioos:station:TCOON:009:1,2009-02-04T03:00:00Z,27.8398,-97.0727,0.0,3.1,163.0,4.2,'11111222,11111222,11111222' 
TCOON,ioos:station:TCOON:009:1,2009-02-04T04:00:00Z,27.8398,-97.0727,0.0,2.3,169.0,3.2,'11111222,11111222,11111222' 
TCOON,ioos:station:TCOON:009:1,2009-02-04T05:00:00Z,27.8398,-97.0727,0.0,2.4,194.0,3.1,'11111222,11111222,11111222' 
TCOON,ioos:station:TCOON:009:1,2009-02-04T06:00:00Z,27.8398,-97.0727,0.0,1.8,208.0,2.4,'11111222,11111222,11111222' 
TCOON,ioos:station:TCOON:009:1,2009-02-04T07:00:00Z,27.8398,-97.0727,0.0,2.5,223.0,3.3,'11111222,11111222,11111222' 
TCOON,ioos:station:TCOON:009:1,2009-02-04T08:00:00Z,27.8398,-97.0727,0.0,2.3,220.0,2.7,'11111222,11111222,11111222' 
TCOON,ioos:station:TCOON:009:1,2009-02-04T09:00:00Z,27.8398,-97.0727,0.0,1.8,230.0,2.1,'11111222,11111222,11111222' 
TCOON,ioos:station:TCOON:009:1,2009-02-04T10:00:00Z,27.8398,-97.0727,0.0,0.9,294.0,1.1,'11111222,11111222,11111222' 
TCOON,ioos:station:TCOON:009:1,2009-02-04T11:00:00Z,27.8398,-97.0727,0.0,3.0,8.0,3.6,'11111222,11111222,11111222' 
TCOON,ioos:station:TCOON:009:1,2009-02-04T12:00:00Z,27.8398,-97.0727,0.0,2.4,16.0,3.2,'11111222,11111222,11111222' 
TCOON,ioos:station:TCOON:009:1,2009-02-04T13:00:00Z,27.8398,-97.0727,0.0,2.6,20.0,3.2,'11111222,11111222,11111222' 
TCOON,ioos:station:TCOON:009:1,2009-02-04T14:00:00Z,27.8398,-97.0727,0.0,4.3,49.0,5.3,'11111222,11111222,11111222' 
TCOON,ioos:station:TCOON:009:1,2009-02-04T15:00:00Z,27.8398,-97.0727,0.0,4.9,51.0,5.5,'11111222,11111222,11111222' 
TCOON,ioos:station:TCOON:009:1,2009-02-04T16:00:00Z,27.8398,-97.0727,0.0,3.8,57.0,4.6,'11111222,11111222,11111222' 
TCOON,ioos:station:TCOON:009:1,2009-02-04T17:00:00Z,27.8398,-97.0727,0.0,6.3,65.0,7.1,'11111222,11111222,11111222' 
TCOON,ioos:station:TCOON:009:1,2009-02-04T18:00:00Z,27.8398,-97.0727,0.0,7.1,77.0,8.2,'11111222,11111222,11111222' 
TCOON,ioos:station:TCOON:009:1,2009-02-04T19:00:00Z,27.8398,-97.0727,0.0,6.2,82.0,7.4,'11111222,11111222,11111222' 
TCOON,ioos:station:TCOON:009:1,2009-02-04T20:00:00Z,27.8398,-97.0727,0.0,6.8,80.0,8.0,'11111222,11111222,11111222' 
TCOON,ioos:station:TCOON:009:1,2009-02-04T21:00:00Z,27.8398,-97.0727,0.0,6.9,80.0,8.1,'11111222,11111222,11111222' 
TCOON,ioos:station:TCOON:009:1,2009-02-04T22:00:00Z,27.8398,-97.0727,0.0,7.4,79.0,9.2,'11111222,11111222,11111222' 
TCOON,ioos:station:TCOON:009:1,2009-02-04T23:00:00Z,27.8398,-97.0727,0.0,7.4,82.0,8.7,'11111222,11111222,11111222' 
TCOON,ioos:station:TCOON:009:1,2009-02-05T00:00:00Z,27.8398,-97.0727,0.0,6.4,84.0,7.9,'11111222,11111222,11111222' 
TCOON,ioos:station:TCOON:009:1,2009-02-05T01:00:00Z,27.8398,-97.0727,0.0,6.0,83.0,8.1,'11111222,11111222,11111222' 
TCOON,ioos:station:TCOON:009:1,2009-02-05T02:00:00Z,27.8398,-97.0727,0.0,6.8,85.0,8.2,'11111222,11111222,11111222' 
TCOON,ioos:station:TCOON:009:1,2009-02-05T03:00:00Z,27.8398,-97.0727,0.0,5.6,86.0,7.2,'11111222,11111222,11111222' 
TCOON,ioos:station:TCOON:009:1,2009-02-05T04:00:00Z,27.8398,-97.0727,0.0,4.2,94.0,5.7,'11111222,11111222,11111222' 
TCOON,ioos:station:TCOON:009:1,2009-02-05T05:00:00Z,27.8398,-97.0727,0.0,4.0,109.0,5.4,'11111222,11111222,11111222' 
TCOON,ioos:station:TCOON:009:1,2009-02-05T06:00:00Z,27.8398,-97.0727,0.0,4.0,113.0,5.0,'11111222,11111222,11111222' 
TCOON,ioos:station:TCOON:009:1,2009-02-05T07:00:00Z,27.8398,-97.0727,0.0,3.6,118.0,5.0,'11111222,11111222,11111222' 
TCOON,ioos:station:TCOON:009:1,2009-02-05T08:00:00Z,27.8398,-97.0727,0.0,3.8,117.0,5.4,'11111222,11111222,11111222' 
TCOON,ioos:station:TCOON:009:1,2009-02-05T09:00:00Z,27.8398,-97.0727,0.0,3.9,125.0,5.7,'11111222,11111222,11111222' 
TCOON,ioos:station:TCOON:009:1,2009-02-05T10:00:00Z,27.8398,-97.0727,0.0,2.8,122.0,3.6,'11111222,11111222,11111222' 
TCOON,ioos:station:TCOON:009:1,2009-02-05T11:00:00Z,27.8398,-97.0727,0.0,3.5,126.0,4.4,'11111222,11111222,11111222' 
TCOON,ioos:station:TCOON:009:1,2009-02-05T12:00:00Z,27.8398,-97.0727,0.0,3.1,128.0,4.2,'11111222,11111222,11111222' 
TCOON,ioos:station:TCOON:009:1,2009-02-05T13:00:00Z,27.8398,-97.0727,0.0,3.1,122.0,4.3,'11111222,11111222,11111222' 
TCOON,ioos:station:TCOON:009:1,2009-02-05T14:00:00Z,27.8398,-97.0727,0.0,3.6,130.0,4.9,'11111222,11111222,11111222' 
TCOON,ioos:station:TCOON:009:1,2009-02-05T15:00:00Z,27.8398,-97.0727,0.0,3.0,139.0,4.9,'11111222,11111222,11111222' 
TCOON,ioos:station:TCOON:009:1,2009-02-05T16:00:00Z,27.8398,-97.0727,0.0,2.7,146.0,3.9,'11111222,11111222,11111222' 
TCOON,ioos:station:TCOON:009:1,2009-02-05T17:00:00Z,27.8398,-97.0727,0.0,2.9,198.0,4.0,'11111222,11111222,11111222' 
TCOON,ioos:station:TCOON:009:1,2009-02-05T18:00:00Z,27.8398,-97.0727,0.0,4.0,202.0,5.6,'11111222,11111222,11111222' 
TCOON,ioos:station:TCOON:009:1,2009-02-05T19:00:00Z,27.8398,-97.0727,0.0,3.9,174.0,5.3,'11111222,11111222,11111222' 
TCOON,ioos:station:TCOON:009:1,2009-02-05T20:00:00Z,27.8398,-97.0727,0.0,2.6,174.0,3.9,'11111222,11111222,11111222' 
TCOON,ioos:station:TCOON:009:1,2009-02-05T21:00:00Z,27.8398,-97.0727,0.0,3.5,140.0,4.6,'11111222,11111222,11111222' 
TCOON,ioos:station:TCOON:009:1,2009-02-05T22:00:00Z,27.8398,-97.0727,0.0,2.7,147.0,4.2,'11111222,11111222,11111222' 
TCOON,ioos:station:TCOON:009:1,2009-02-05T23:00:00Z,27.8398,-97.0727,0.0,2.9,123.0,3.8,'11111222,11111222,11111222' 
TCOON,ioos:station:TCOON:009:1,2009-02-06T00:00:00Z,27.8398,-97.0727,0.0,2.2,141.0,2.8,'11111222,11111222,11111222' 
TCOON,ioos:station:TCOON:009:1,2009-02-06T01:00:00Z,27.8398,-97.0727,0.0,1.8,137.0,2.3,'11111222,11111222,11111222' 
TCOON,ioos:station:TCOON:009:1,2009-02-06T02:00:00Z,27.8398,-97.0727,0.0,2.0,158.0,3.6,'11111222,11111222,11111222' 
TCOON,ioos:station:TCOON:009:1,2009-02-06T03:00:00Z,27.8398,-97.0727,0.0,2.6,151.0,4.1,'11111222,11111222,11111222' 
TCOON,ioos:station:TCOON:009:1,2009-02-06T04:00:00Z,27.8398,-97.0727,0.0,3.4,161.0,6.2,'11111222,11111222,11111222' 
TCOON,ioos:station:TCOON:009:1,2009-02-06T05:00:00Z,27.8398,-97.0727,0.0,3.0,156.0,5.1,'11111222,11111222,11111222' 
TCOON,ioos:station:TCOON:009:1,2009-02-06T06:00:00Z,27.8398,-97.0727,0.0,4.6,160.0,7.9,'11111222,11111222,11111222' 
TCOON,ioos:station:TCOON:009:1,2009-02-06T07:00:00Z,27.8398,-97.0727,0.0,5.3,164.0,7.6,'11111222,11111222,11111222' 
TCOON,ioos:station:TCOON:009:1,2009-02-06T08:00:00Z,27.8398,-97.0727,0.0,3.9,161.0,5.8,'11111222,11111222,11111222' 
TCOON,ioos:station:TCOON:009:1,2009-02-06T09:00:00Z,27.8398,-97.0727,0.0,2.9,160.0,4.6,'11111222,11111222,11111222' 
TCOON,ioos:station:TCOON:009:1,2009-02-06T10:00:00Z,27.8398,-97.0727,0.0,3.7,164.0,5.4,'11111222,11111222,11111222' 
TCOON,ioos:station:TCOON:009:1,2009-02-06T11:00:00Z,27.8398,-97.0727,0.0,3.5,161.0,5.9,'11111222,11111222,11111222' 
TCOON,ioos:station:TCOON:009:1,2009-02-06T12:00:00Z,27.8398,-97.0727,0.0,3.9,156.0,6.1,'11111222,11111222,11111222' 
TCOON,ioos:station:TCOON:009:1,2009-02-06T13:00:00Z,27.8398,-97.0727,0.0,4.6,156.0,6.3,'11111222,11111222,11111222' 
TCOON,ioos:station:TCOON:009:1,2009-02-06T14:00:00Z,27.8398,-97.0727,0.0,4.3,156.0,6.5,'11111222,11111222,11111222' 
TCOON,ioos:station:TCOON:009:1,2009-02-06T15:00:00Z,27.8398,-97.0727,0.0,3.8,158.0,7.2,'11111222,11111222,11111222' 
TCOON,ioos:station:TCOON:009:1,2009-02-06T16:00:00Z,27.8398,-97.0727,0.0,4.8,155.0,7.0,'11111222,11111222,11111222' 
TCOON,ioos:station:TCOON:009:1,2009-02-06T17:00:00Z,27.8398,-97.0727,0.0,4.6,151.0,6.8,'11111222,11111222,11111222' 
TCOON,ioos:station:TCOON:009:1,2009-02-06T18:00:00Z,27.8398,-97.0727,0.0,3.8,157.0,6.3,'11111222,11111222,11111222' 
TCOON,ioos:station:TCOON:009:1,2009-02-06T19:00:00Z,27.8398,-97.0727,0.0,5.2,152.0,8.1,'11111222,11111222,11111222' 
TCOON,ioos:station:TCOON:009:1,2009-02-06T20:00:00Z,27.8398,-97.0727,0.0,7.8,151.0,99.0,'11111222,11111222,11144222' 
TCOON,ioos:station:TCOON:009:1,2009-02-06T21:00:00Z,27.8398,-97.0727,0.0,6.8,151.0,10.5,'11111222,11111222,11111222' 
TCOON,ioos:station:TCOON:009:1,2009-02-06T22:00:00Z,27.8398,-97.0727,0.0,6.0,150.0,10.7,'11111222,11111222,11111222' 
TCOON,ioos:station:TCOON:009:1,2009-02-06T23:00:00Z,27.8398,-97.0727,0.0,6.1,153.0,9.9,'11111222,11111222,11111222' 
TCOON,ioos:station:TCOON:009:1,2009-02-07T00:00:00Z,27.8398,-97.0727,0.0,4.6,153.0,8.6,'11111222,11111222,11111222' 
TCOON,ioos:station:TCOON:009:1,2009-02-07T01:00:00Z,27.8398,-97.0727,0.0,4.3,149.0,8.1,'11111222,11111222,11111222' 
TCOON,ioos:station:TCOON:009:1,2009-02-07T02:00:00Z,27.8398,-97.0727,0.0,5.6,148.0,99.0,'11111222,11111222,11144222' 
TCOON,ioos:station:TCOON:009:1,2009-02-07T03:00:00Z,27.8398,-97.0727,0.0,5.4,145.0,8.5,'11111222,11111222,11111222' 
TCOON,ioos:station:TCOON:009:1,2009-02-07T04:00:00Z,27.8398,-97.0727,0.0,5.5,157.0,8.6,'11111222,11111222,11111222' 
TCOON,ioos:station:TCOON:009:1,2009-02-07T05:00:00Z,27.8398,-97.0727,0.0,4.8,158.0,9.1,'11111222,11111222,11111222' 
TCOON,ioos:station:TCOON:009:1,2009-02-07T06:00:00Z,27.8398,-97.0727,0.0,4.5,161.0,6.9,'11111222,11111222,11111222' 
TCOON,ioos:station:TCOON:009:1,2009-02-07T07:00:00Z,27.8398,-97.0727,0.0,5.6,159.0,9.2,'11111222,11111222,11111222' 
TCOON,ioos:station:TCOON:009:1,2009-02-07T08:00:00Z,27.8398,-97.0727,0.0,4.7,159.0,7.5,'11111222,11111222,11111222' 
TCOON,ioos:station:TCOON:009:1,2009-02-07T09:00:00Z,27.8398,-97.0727,0.0,3.5,164.0,6.4,'11111222,11111222,11111222' 
TCOON,ioos:station:TCOON:009:1,2009-02-07T10:00:00Z,27.8398,-97.0727,0.0,3.9,162.0,5.4,'11111222,11111222,11111222' 
TCOON,ioos:station:TCOON:009:1,2009-02-07T11:00:00Z,27.8398,-97.0727,0.0,3.8,165.0,6.2,'11111222,11111222,11111222' 
TCOON,ioos:station:TCOON:009:1,2009-02-07T12:00:00Z,27.8398,-97.0727,0.0,3.7,163.0,6.6,'11111222,11111222,11111222' 
TCOON,ioos:station:TCOON:009:1,2009-02-07T13:00:00Z,27.8398,-97.0727,0.0,4.8,154.0,7.0,'11111222,11111222,11111222' 
TCOON,ioos:station:TCOON:009:1,2009-02-07T14:00:00Z,27.8398,-97.0727,0.0,5.5,160.0,8.4,'11111222,11111222,11111222' 
TCOON,ioos:station:TCOON:009:1,2009-02-07T15:00:00Z,27.8398,-97.0727,0.0,5.6,156.0,9.5,'11111222,11111222,11111222' 
TCOON,ioos:station:TCOON:009:1,2009-02-07T16:00:00Z,27.8398,-97.0727,0.0,5.4,155.0,7.7,'11111222,11111222,11111222' 
TCOON,ioos:station:TCOON:009:1,2009-02-07T17:00:00Z,27.8398,-97.0727,0.0,4.9,164.0,8.0,'11111222,11111222,11111222' 
TCOON,ioos:station:TCOON:009:1,2009-02-07T18:00:00Z,27.8398,-97.0727,0.0,4.9,153.0,7.9,'11111222,11111222,11111222' 
TCOON,ioos:station:TCOON:009:1,2009-02-07T19:00:00Z,27.8398,-97.0727,0.0,6.0,159.0,9.6,'11111222,11111222,11111222' 
TCOON,ioos:station:TCOON:009:1,2009-02-07T20:00:00Z,27.8398,-97.0727,0.0,5.8,161.0,9.2,'11111222,11111222,11111222' 
TCOON,ioos:station:TCOON:009:1,2009-02-07T21:00:00Z,27.8398,-97.0727,0.0,6.4,169.0,8.7,'11111222,11111222,11111222' 
TCOON,ioos:station:TCOON:009:1,2009-02-07T22:00:00Z,27.8398,-97.0727,0.0,3.9,147.0,6.5,'11111222,11111222,11111222' 
TCOON,ioos:station:TCOON:009:1,2009-02-07T23:00:00Z,27.8398,-97.0727,0.0,4.6,153.0,6.3,'11111222,11111222,11111222' 
TCOON,ioos:station:TCOON:009:1,2009-02-08T00:00:00Z,27.8398,-97.0727,0.0,3.9,150.0,7.5,'11111222,11111222,11111222' 
TCOON,ioos:station:TCOON:009:1,2009-02-08T01:00:00Z,27.8398,-97.0727,0.0,2.7,141.0,4.1,'11111222,11111222,11111222' 
TCOON,ioos:station:TCOON:009:1,2009-02-08T02:00:00Z,27.8398,-97.0727,0.0,3.4,141.0,6.5,'11111222,11111222,11111222' 
TCOON,ioos:station:TCOON:009:1,2009-02-08T03:00:00Z,27.8398,-97.0727,0.0,3.5,151.0,5.3,'11111222,11111222,11111222' 
TCOON,ioos:station:TCOON:009:1,2009-02-08T04:00:00Z,27.8398,-97.0727,0.0,4.0,154.0,6.7,'11111222,11111222,11111222' 
TCOON,ioos:station:TCOON:009:1,2009-02-08T05:00:00Z,27.8398,-97.0727,0.0,3.3,159.0,5.8,'11111222,11111222,11111222' 
TCOON,ioos:station:TCOON:009:1,2009-02-08T06:00:00Z,27.8398,-97.0727,0.0,3.6,147.0,5.1,'11111222,11111222,11111222' 
TCOON,ioos:station:TCOON:009:1,2009-02-08T07:00:00Z,27.8398,-97.0727,0.0,3.3,146.0,5.5,'11111222,11111222,11111222' 
TCOON,ioos:station:TCOON:009:1,2009-02-08T08:00:00Z,27.8398,-97.0727,0.0,4.1,160.0,7.4,'11111222,11111222,11111222' 
TCOON,ioos:station:TCOON:009:1,2009-02-08T09:00:00Z,27.8398,-97.0727,0.0,3.9,158.0,5.3,'11111222,11111222,11111222' 
TCOON,ioos:station:TCOON:009:1,2009-02-08T10:00:00Z,27.8398,-97.0727,0.0,3.2,147.0,5.6,'11111222,11111222,11111222' 
TCOON,ioos:station:TCOON:009:1,2009-02-08T11:00:00Z,27.8398,-97.0727,0.0,3.8,149.0,6.4,'11111222,11111222,11111222' 
TCOON,ioos:station:TCOON:009:1,2009-02-08T12:00:00Z,27.8398,-97.0727,0.0,3.7,152.0,6.1,'11111222,11111222,11111222' 
TCOON,ioos:station:TCOON:009:1,2009-02-08T13:00:00Z,27.8398,-97.0727,0.0,4.7,151.0,6.8,'11111222,11111222,11111222' 
TCOON,ioos:station:TCOON:009:1,2009-02-08T14:00:00Z,27.8398,-97.0727,0.0,3.6,145.0,5.3,'11111222,11111222,11111222' 
TCOON,ioos:station:TCOON:009:1,2009-02-08T15:00:00Z,27.8398,-97.0727,0.0,4.8,145.0,7.1,'11111222,11111222,11111222' 
TCOON,ioos:station:TCOON:009:1,2009-02-08T16:00:00Z,27.8398,-97.0727,0.0,5.0,137.0,7.2,'11111222,11111222,11111222' 
TCOON,ioos:station:TCOON:009:1,2009-02-08T17:00:00Z,27.8398,-97.0727,0.0,4.4,147.0,6.9,'11111222,11111222,11111222' 
TCOON,ioos:station:TCOON:009:1,2009-02-08T18:00:00Z,27.8398,-97.0727,0.0,4.5,154.0,7.9,'11111222,11111222,11111222' 
TCOON,ioos:station:TCOON:009:1,2009-02-08T19:00:00Z,27.8398,-97.0727,0.0,5.7,139.0,7.9,'11111222,11111222,11111222' 
TCOON,ioos:station:TCOON:009:1,2009-02-08T20:00:00Z,27.8398,-97.0727,0.0,5.4,139.0,8.0,'11111222,11111222,11111222' 
TCOON,ioos:station:TCOON:009:1,2009-02-08T21:00:00Z,27.8398,-97.0727,0.0,5.5,144.0,8.2,'11111222,11111222,11111222' 
TCOON,ioos:station:TCOON:009:1,2009-02-08T22:00:00Z,27.8398,-97.0727,0.0,5.1,141.0,9.3,'11111222,11111222,11111222' 
TCOON,ioos:station:TCOON:009:1,2009-02-08T23:00:00Z,27.8398,-97.0727,0.0,5.0,141.0,8.4,'11111222,11111222,11111222' 
TCOON,ioos:station:TCOON:009:1,2009-02-09T00:00:00Z,27.8398,-97.0727,0.0,5.5,138.0,8.2,'11111222,11111222,11111222' 
TCOON,ioos:station:TCOON:009:1,2009-02-09T01:00:00Z,27.8398,-97.0727,0.0,6.2,134.0,8.8,'11111222,11111222,11111222' 
TCOON,ioos:station:TCOON:009:1,2009-02-09T02:00:00Z,27.8398,-97.0727,0.0,5.4,138.0,7.6,'11111222,11111222,11111222' 
TCOON,ioos:station:TCOON:009:1,2009-02-09T03:00:00Z,27.8398,-97.0727,0.0,5.2,143.0,9.4,'11111222,11111222,11111222' 
TCOON,ioos:station:TCOON:009:1,2009-02-09T04:00:00Z,27.8398,-97.0727,0.0,5.5,142.0,8.1,'11111222,11111222,11111222' 
TCOON,ioos:station:TCOON:009:1,2009-02-09T05:00:00Z,27.8398,-97.0727,0.0,5.6,151.0,8.3,'11111222,11111222,11111222' 
TCOON,ioos:station:TCOON:009:1,2009-02-09T06:00:00Z,27.8398,-97.0727,0.0,4.1,152.0,6.8,'11111222,11111222,11111222' 
TCOON,ioos:station:TCOON:009:1,2009-02-09T07:00:00Z,27.8398,-97.0727,0.0,5.5,155.0,7.6,'11111222,11111222,11111222' 
TCOON,ioos:station:TCOON:009:1,2009-02-09T08:00:00Z,27.8398,-97.0727,0.0,4.9,143.0,9.1,'11111222,11111222,11111222' 
TCOON,ioos:station:TCOON:009:1,2009-02-09T09:00:00Z,27.8398,-97.0727,0.0,5.6,156.0,8.3,'11111222,11111222,11111222' 
TCOON,ioos:station:TCOON:009:1,2009-02-09T10:00:00Z,27.8398,-97.0727,0.0,4.8,159.0,7.6,'11111222,11111222,11111222' 
TCOON,ioos:station:TCOON:009:1,2009-02-09T11:00:00Z,27.8398,-97.0727,0.0,6.1,160.0,9.0,'11111222,11111222,11111222' 
TCOON,ioos:station:TCOON:009:1,2009-02-09T12:00:00Z,27.8398,-97.0727,0.0,3.5,170.0,5.5,'11111222,11111222,11111222' 
TCOON,ioos:station:TCOON:009:1,2009-02-09T13:00:00Z,27.8398,-97.0727,0.0,4.1,151.0,5.7,'11111222,11111222,11111222' 